sat.trackr.live / text

‹ back to catalog

STARLINK-32311

NORAD 62114 · 2024-222A

PAYLOAD ACTIVE UNKNOWN

§ Identity

Operator
Country
US
Launch date
2024-11-27
Launch site
AFETR
Launch vehicle
Mass (kg)
RCS (m²)

Purposes: comms

External: N2YO · Heavens-Above · Gunter

§ Orbital elements

Epoch: 2026-05-25T03:16:10.836192Z

Period
94.27 min
Inclination
43.0021°
Eccentricity
0.0001573
Mean motion
15.27590215 rev/d
Perigee alt
481.9 km
Apogee alt
484.1 km
Semi-major
6,861.2 km
B*
3.5902e-4
RAAN
49.4716°
Arg perigee
262.5709°
Mean anomaly
97.4964°
Rev number
8,477

§ Raw data

STARLINK-323111 62114U 24222A   26145.13623653  .00009633  00000+0  35902-3 0  99952 62114  43.0021  49.4716 0001573 262.5709  97.4964 15.27590215 84776

JSON: /api/v1/satellites/62114 · /tle

For live sub-satellite position, see the globe view (requires WebGL).

§ Visibility from observer

Set your observer location to see the next 7 days of passes ≥ 10°. The values pass through the URL so the page stays shareable.

No JS? Fill the form by hand. The geolocation button needs JavaScript.